Time,TemperatureF,DewpointF,PressureIn,WindDirection,WindDirectionDegrees,WindSpeedMPH,WindSpeedGustMPH,Humidity,HourlyPrecipIn,Conditions,Clouds,dailyrainin,SolarRadiationWatts/m^2,SoftwareType,DateUTC
2013-09-21 00:14:00,67.0,66.0,-100.00,West,259,4.0,8.0,98,0.12,,,0.41,0.000000,,2013-09-21 04:14:00,
2013-09-21 00:24:00,67.0,66.0,-100.00,West,259,4.0,8.0,98,0.12,,,0.41,0.000000,,2013-09-21 04:24:00,
2013-09-21 00:34:00,67.0,66.0,-100.00,West,259,4.0,8.0,98,0.12,,,0.41,0.000000,,2013-09-21 04:34:00,
2013-09-21 00:43:00,67.0,66.0,-100.00,West,259,4.0,8.0,98,0.12,,,0.41,0.000000,,2013-09-21 04:43:00,
2013-09-21 01:13:00,66.0,65.0,-100.00,WSW,244,4.0,8.0,98,0.06,,,0.47,0.000000,,2013-09-21 05:13:00,
2013-09-21 01:23:00,66.0,65.0,-100.00,WSW,244,4.0,8.0,98,0.06,,,0.47,0.000000,,2013-09-21 05:23:00,
2013-09-21 01:34:00,66.0,65.0,-100.00,WSW,244,4.0,8.0,98,0.06,,,0.47,0.000000,,2013-09-21 05:34:00,
2013-09-21 01:43:00,66.0,65.0,-100.00,WSW,244,4.0,8.0,98,0.06,,,0.47,0.000000,,2013-09-21 05:43:00,
2013-09-21 02:12:00,66.0,65.0,-100.00,WSW,258,4.0,6.0,98,0.06,,,0.53,0.000000,,2013-09-21 06:12:00,
2013-09-21 02:22:00,66.0,65.0,-100.00,WSW,258,4.0,6.0,98,0.06,,,0.53,0.000000,,2013-09-21 06:22:00,
2013-09-21 02:32:00,66.0,65.0,-100.00,WSW,258,4.0,6.0,98,0.06,,,0.53,0.000000,,2013-09-21 06:32:00,
2013-09-21 02:42:00,66.0,65.0,-100.00,WSW,258,4.0,6.0,98,0.06,,,0.53,0.000000,,2013-09-21 06:42:00,
2013-09-21 03:11:00,66.0,66.0,-100.00,WNW,282,4.0,8.0,99,0.03,,,0.56,0.000000,,2013-09-21 07:11:00,
2013-09-21 03:22:00,66.0,66.0,-100.00,WNW,282,4.0,8.0,99,0.03,,,0.56,0.000000,,2013-09-21 07:22:00,
2013-09-21 03:32:00,66.0,66.0,-100.00,WNW,282,4.0,8.0,99,0.03,,,0.56,0.000000,,2013-09-21 07:32:00,
2013-09-21 03:42:00,66.0,66.0,-100.00,WNW,282,4.0,8.0,99,0.03,,,0.56,0.000000,,2013-09-21 07:42:00,
2013-09-21 04:13:00,66.0,66.0,-100.00,West,267,1.0,6.0,99,0.06,,,0.62,0.000000,,2013-09-21 08:13:00,
2013-09-21 04:22:00,66.0,66.0,-100.00,West,267,1.0,6.0,99,0.06,,,0.62,0.000000,,2013-09-21 08:22:00,
2013-09-21 04:32:00,66.0,66.0,-100.00,West,267,1.0,6.0,99,0.06,,,0.62,0.000000,,2013-09-21 08:32:00,
2013-09-21 04:42:00,66.0,66.0,-100.00,West,267,1.0,6.0,99,0.06,,,0.62,0.000000,,2013-09-21 08:42:00,
2013-09-21 05:11:00,63.0,62.0,-100.00,NW,324,7.0,14.0,97,0.07,,,0.69,0.000000,,2013-09-21 09:11:00,
2013-09-21 05:22:00,63.0,62.0,-100.00,NW,324,7.0,14.0,97,0.07,,,0.69,0.000000,,2013-09-21 09:22:00,
2013-09-21 05:33:00,63.0,62.0,-100.00,NW,324,7.0,14.0,97,0.07,,,0.69,0.000000,,2013-09-21 09:33:00,
2013-09-21 05:43:00,63.0,62.0,-100.00,NW,324,7.0,14.0,97,0.07,,,0.69,0.000000,,2013-09-21 09:43:00,
2013-09-21 06:12:00,60.0,59.0,-100.00,NNW,335,6.0,13.0,96,0.06,,,-99.99,0.000000,,2013-09-21 10:12:00,
2013-09-21 06:23:00,60.0,59.0,-100.00,NNW,335,6.0,13.0,96,0.06,,,-99.99,0.000000,,2013-09-21 10:23:00,
2013-09-21 06:33:00,60.0,59.0,-100.00,NNW,335,6.0,13.0,96,0.06,,,-99.99,0.000000,,2013-09-21 10:33:00,
2013-09-21 06:42:00,60.0,59.0,-100.00,NNW,335,6.0,13.0,96,0.06,,,-99.99,0.000000,,2013-09-21 10:42:00,
2013-09-21 07:12:00,60.0,59.0,-100.00,NW,316,5.0,10.0,95,0.01,,,-99.99,0.000000,,2013-09-21 11:12:00,
2013-09-21 07:23:00,60.0,59.0,-100.00,NW,316,5.0,10.0,95,0.01,,,-99.99,0.000000,,2013-09-21 11:23:00,
2013-09-21 07:33:00,60.0,59.0,-100.00,NW,316,5.0,10.0,95,0.01,,,-99.99,0.000000,,2013-09-21 11:33:00,
2013-09-21 07:42:00,60.0,59.0,-100.00,NW,316,5.0,10.0,95,0.01,,,-99.99,0.000000,,2013-09-21 11:42:00,
2013-09-21 08:12:00,57.0,54.0,-100.00,NW,317,7.0,12.0,91,0.00,,,0.75,1.000000,,2013-09-21 12:12:00,
2013-09-21 08:22:00,57.0,54.0,-100.00,NW,317,7.0,12.0,91,0.00,,,0.75,1.000000,,2013-09-21 12:22:00,
2013-09-21 08:32:00,57.0,54.0,-100.00,NW,317,7.0,12.0,91,0.00,,,0.75,1.000000,,2013-09-21 12:32:00,
2013-09-21 08:42:00,57.0,54.0,-100.00,NW,317,7.0,12.0,91,0.00,,,0.75,1.000000,,2013-09-21 12:42:00,
2013-09-21 09:11:00,57.0,55.0,-100.00,WNW,301,7.0,12.0,94,0.00,,,0.75,36.000000,,2013-09-21 13:11:00,
2013-09-21 09:22:00,57.0,55.0,-100.00,WNW,301,7.0,12.0,94,0.00,,,0.75,36.000000,,2013-09-21 13:22:00,
2013-09-21 09:32:00,57.0,55.0,-100.00,WNW,301,7.0,12.0,94,0.00,,,0.75,36.000000,,2013-09-21 13:32:00,
2013-09-21 09:42:00,57.0,55.0,-100.00,WNW,301,7.0,12.0,94,0.00,,,0.75,36.000000,,2013-09-21 13:42:00,
2013-09-21 10:11:00,58.0,56.0,-100.00,NW,315,6.0,11.0,92,0.00,,,0.75,129.000000,,2013-09-21 14:11:00,
2013-09-21 10:22:00,58.0,56.0,-100.00,NW,315,6.0,11.0,92,0.00,,,0.75,129.000000,,2013-09-21 14:22:00,
2013-09-21 10:32:00,58.0,56.0,-100.00,NW,315,6.0,11.0,92,0.00,,,0.75,129.000000,,2013-09-21 14:32:00,
2013-09-21 10:42:00,58.0,56.0,-100.00,NW,315,6.0,11.0,92,0.00,,,0.75,129.000000,,2013-09-21 14:42:00,
2013-09-21 11:12:00,59.0,56.0,-100.00,NNW,336,7.0,12.0,89,0.00,,,0.75,156.000000,,2013-09-21 15:12:00,
2013-09-21 11:22:00,59.0,56.0,-100.00,NNW,336,7.0,12.0,89,0.00,,,0.75,156.000000,,2013-09-21 15:22:00,
2013-09-21 11:34:00,59.0,56.0,-100.00,NNW,336,7.0,12.0,89,0.00,,,0.75,156.000000,,2013-09-21 15:34:00,
2013-09-21 11:45:00,59.0,56.0,-100.00,NNW,336,7.0,12.0,89,0.00,,,0.75,156.000000,,2013-09-21 15:45:00,
2013-09-21 12:14:00,62.0,55.0,-100.00,NW,311,7.0,13.0,78,0.00,,,0.75,433.000000,,2013-09-21 16:14:00,
2013-09-21 12:24:00,62.0,55.0,-100.00,NW,311,7.0,13.0,78,0.00,,,0.75,433.000000,,2013-09-21 16:24:00,
2013-09-21 12:34:00,62.0,55.0,-100.00,NW,311,7.0,13.0,78,0.00,,,0.75,433.000000,,2013-09-21 16:34:00,
2013-09-21 12:43:00,62.0,55.0,-100.00,NW,311,7.0,13.0,78,0.00,,,0.75,433.000000,,2013-09-21 16:43:00,
2013-09-21 13:12:00,67.0,55.0,-100.00,NW,322,9.0,16.0,66,0.00,,,0.75,794.000000,,2013-09-21 17:12:00,
2013-09-21 13:23:00,67.0,55.0,-100.00,NW,322,9.0,16.0,66,0.00,,,0.75,794.000000,,2013-09-21 17:23:00,
2013-09-21 13:34:00,67.0,55.0,-100.00,NW,322,9.0,16.0,66,0.00,,,0.75,794.000000,,2013-09-21 17:34:00,
2013-09-21 13:43:00,67.0,55.0,-100.00,NW,322,9.0,16.0,66,0.00,,,0.75,794.000000,,2013-09-21 17:43:00,
2013-09-21 14:13:00,69.0,53.0,-100.00,NW,311,9.0,15.0,57,0.00,,,0.75,833.000000,,2013-09-21 18:13:00,
2013-09-21 14:22:00,69.0,53.0,-100.00,NW,311,9.0,15.0,57,0.00,,,0.75,833.000000,,2013-09-21 18:22:00,
2013-09-21 14:32:00,69.0,53.0,-100.00,NW,311,9.0,15.0,57,0.00,,,0.75,833.000000,,2013-09-21 18:32:00,
2013-09-21 14:42:00,69.0,53.0,-100.00,NW,311,9.0,15.0,57,0.00,,,0.75,833.000000,,2013-09-21 18:42:00,
2013-09-21 15:12:00,70.0,50.0,-100.00,NW,311,9.0,20.0,50,0.00,,,0.75,724.000000,,2013-09-21 19:12:00,
2013-09-21 15:22:00,70.0,50.0,-100.00,NW,311,9.0,20.0,50,0.00,,,0.75,724.000000,,2013-09-21 19:22:00,
2013-09-21 15:32:00,70.0,50.0,-100.00,NW,311,9.0,20.0,50,0.00,,,0.75,724.000000,,2013-09-21 19:32:00,
2013-09-21 15:42:00,70.0,50.0,-100.00,NW,311,9.0,20.0,50,0.00,,,0.75,724.000000,,2013-09-21 19:42:00,
2013-09-21 16:12:00,72.0,47.0,-100.00,NW,325,8.0,17.0,41,0.00,,,0.75,938.000000,,2013-09-21 20:12:00,
2013-09-21 16:22:00,72.0,47.0,-100.00,NW,325,8.0,17.0,41,0.00,,,0.75,938.000000,,2013-09-21 20:22:00,
2013-09-21 16:32:00,72.0,47.0,-100.00,NW,325,8.0,17.0,41,0.00,,,0.75,938.000000,,2013-09-21 20:32:00,
2013-09-21 16:42:00,72.0,47.0,-100.00,NW,325,8.0,17.0,41,0.00,,,0.75,938.000000,,2013-09-21 20:42:00,
2013-09-21 17:12:00,71.0,48.0,-100.00,NW,304,7.0,15.0,44,0.00,,,0.75,576.000000,,2013-09-21 21:12:00,
2013-09-21 17:22:00,71.0,48.0,-100.00,NW,304,7.0,15.0,44,0.00,,,0.75,576.000000,,2013-09-21 21:22:00,
2013-09-21 17:34:00,71.0,48.0,-100.00,NW,304,7.0,15.0,44,0.00,,,0.75,576.000000,,2013-09-21 21:34:00,
2013-09-21 17:45:00,71.0,48.0,-100.00,NW,304,7.0,15.0,44,0.00,,,0.75,576.000000,,2013-09-21 21:45:00,
2013-09-21 18:14:00,70.0,46.0,-100.00,NW,322,7.0,18.0,43,0.00,,,0.75,424.000000,,2013-09-21 22:14:00,
2013-09-21 18:24:00,70.0,46.0,-100.00,NW,322,7.0,18.0,43,0.00,,,0.75,424.000000,,2013-09-21 22:24:00,
2013-09-21 18:33:00,70.0,46.0,-100.00,NW,322,7.0,18.0,43,0.00,,,0.75,424.000000,,2013-09-21 22:33:00,
2013-09-21 18:43:00,70.0,46.0,-100.00,NW,322,7.0,18.0,43,0.00,,,0.75,424.000000,,2013-09-21 22:43:00,
2013-09-21 19:13:00,68.0,49.0,-100.00,WNW,297,4.0,11.0,50,0.00,,,0.75,181.000000,,2013-09-21 23:13:00,
2013-09-21 19:23:00,68.0,49.0,-100.00,WNW,297,4.0,11.0,50,0.00,,,0.75,181.000000,,2013-09-21 23:23:00,
2013-09-21 19:34:00,68.0,49.0,-100.00,WNW,297,4.0,11.0,50,0.00,,,0.75,181.000000,,2013-09-21 23:34:00,
2013-09-21 19:42:00,68.0,49.0,-100.00,WNW,297,4.0,11.0,50,0.00,,,0.75,181.000000,,2013-09-21 23:42:00,
2013-09-21 20:23:00,61.0,50.0,-100.00,NW,309,4.0,7.0,67,0.00,,,0.69,55.000000,,2013-09-22 00:23:00,
2013-09-21 20:32:00,61.0,50.0,-100.00,NW,309,4.0,7.0,67,0.00,,,0.69,55.000000,,2013-09-22 00:32:00,
2013-09-21 20:43:00,61.0,50.0,-100.00,NW,309,4.0,7.0,67,0.00,,,0.69,55.000000,,2013-09-22 00:43:00,
2013-09-21 21:42:00,54.0,52.0,-100.00,West,259,1.0,5.0,93,0.00,,,0.67,0.000000,,2013-09-22 01:42:00,
2013-09-21 22:12:00,52.0,51.0,-100.00,WSW,246,1.0,3.0,96,0.00,,,0.61,0.000000,,2013-09-22 02:12:00,
2013-09-21 22:22:00,52.0,51.0,-100.00,WSW,246,1.0,3.0,96,0.00,,,0.61,0.000000,,2013-09-22 02:22:00,
2013-09-21 22:32:00,52.0,51.0,-100.00,WSW,246,1.0,3.0,96,0.00,,,0.61,0.000000,,2013-09-22 02:32:00,
2013-09-21 22:42:00,52.0,51.0,-100.00,WSW,246,1.0,3.0,96,0.00,,,0.61,0.000000,,2013-09-22 02:42:00,